Regional Weather Roundup
Issued by NWS

Home | Current Version | Previous Version | Graphics & Text | Print | Product List | Glossary Off
Versions: 1 2 3 4 5 6 7 8 9 10 11 12 13 14 15 16 17 18 19 20 21 22 23 24 25 26 27 28 29 30 31 32 33 34 35 36 37 38 39 40 41 42 43 44 45 46 47 48 49 50

000
ASUS43 KDMX 171907
RWRIA

WEATHER ROUNDUP FOR IOWA
NATIONAL WEATHER SERVICE DES MOINES IA
100 PM CST WED DEC 17 2014

NOTE: "FAIR" INDICATES FEW OR NO CLOUDS BELOW 12,000 FEET WITH NO
SIGNIFICANT WEATHER AND/OR OBSTRUCTIONS TO VISIBILITY.

* - THESE STATIONS ARE NOT NWS STATIONS...THUS NOT UNDER NWS
QUALITY CONTROL.  THEY ALSO DO NOT REPORT WEATHER SUCH
AS PRECIPITATION OR FOG.

IAZ001>003-012>014-020>022-031>034-043>046-172000-
   NORTHWEST IOWA

CITY           SKY/WX    TMP DP  RH WIND       PRES   REMARKS
CARROLL *      SUNNY     25  16  68 NW7       30.29F WCI  17
CHEROKEE *     SUNNY     23  16  74 N3        30.29F
DENISON *      SUNNY     23  14  68 NE6       30.27F WCI  16
LE MARS *      SUNNY     21  12  68 CALM      30.31F
ORANGE CITY *  SUNNY     21  12  68 N3        30.28F
SHELDON *      SUNNY     19  14  79 NW5       30.27F WCI  13
SIOUX CITY     SUNNY     25  14  63 NE3       30.30F
SPENCER        SUNNY     24  14  65 VRB5      30.28F WCI  18
STORM LAKE *   SUNNY     21  16  79 N5        30.27F WCI  15
$$

IAZ055>058-069>071-079>083-090>094-172000-
   SOUTHWEST IOWA

CITY           SKY/WX    TMP DP  RH WIND       PRES   REMARKS
ATLANTIC *     SUNNY     27  16  63 VRB5      30.28F WCI  21
AUDUBON *      SUNNY     27  14  59 N3        30.28F
CLARINDA *     PTSUNNY   27  18  69 VRB3      30.33S
COUNCIL BLFS * MOSUNNY   25  16  68 CALM      30.28F
CRESTON *      PTSUNNY   25  18  74 NE10      30.27F WCI  15
HARLAN  *      SUNNY     25  18  74 N6        30.32F WCI  18
LAMONI         MOSUNNY   28  16  60 N8        30.27F WCI  20
RED OAK *      PTSUNNY   27  16  63 CALM      30.31F
SHENANDOAH *   SUNNY     27  18  69 CALM      30.32F
$$

IAZ047>049-059>061-072>074-084-172000-
   CENTRAL IOWA

CITY           SKY/WX    TMP DP  RH WIND       PRES   REMARKS
AMES           SUNNY     25  14  63 NW6       30.30F WCI  18
ANKENY *       SUNNY     25  16  68 NW7       30.30F WCI  17
CHARITON *     SUNNY     27  14  59 N6        30.28F WCI  20
DES MOINES     PTSUNNY   28  13  53 NW8       30.30F WCI  20
GRINNELL*      SUNNY     25  18  74 NW6       30.29S WCI  18
KNOXVILLE *    SUNNY     27  14  59 N7        30.28F WCI  19
MARSHALLTOWN   SUNNY     25  15  66 N8        30.27F WCI  16
PELLA *        SUNNY     27  18  69 NW8       30.31F WCI  18
PERRY *          N/A     25  18  74 N6        30.30F WCI  18
$$

IAZ004>006-015-016-023>025-035-036-172000-
   NORTH CENTRAL IOWA

CITY           SKY/WX    TMP DP  RH WIND       PRES   REMARKS
ALGONA *       PTSUNNY   19  14  79 N6        30.29F WCI  11
CLARION *      MOSUNNY   21  18  86 N9        30.28F WCI  11
ESTHERVILLE    SUNNY     20  13  74 N9        30.28F WCI   9
FORT DODGE *   SUNNY     23  14  68 N6        30.29F WCI  16
MASON CITY     MOSUNNY   20  13  74 NW10      30.30F WCI   9
FOREST CITY *  MOSUNNY   21  12  68 NW8       30.28F WCI  12
IOWA FALLS *     N/A     23  16  74 NW7       30.29F WCI  15
$$

IAZ007>011-017>019-026>030-037>042-050>054-066-172000-
   NORTHEAST IOWA

CITY           SKY/WX    TMP DP  RH WIND       PRES   REMARKS
CEDAR RAPIDS   MOSUNNY   24  16  71 NW14      30.26F WCI  12
CHARLES CITY * PTSUNNY   21  14  73 NW10      30.28F WCI  10
CLINTON *      CLOUDY    27  18  69 W13       30.28F WCI  16
DECORAH *      MOSUNNY   21  14  73 NW10      30.24F WCI  10
DUBUQUE        CLOUDY    22  15  75 NW15      30.24F WCI   9
MONTICELLO *   MOSUNNY   25  16  68 NW13      30.26F WCI  13
OELWEIN *      MOSUNNY   21  14  73 NW10G18   30.27F WCI  10
WATERLOO       SUNNY     23  12  62 N13       30.27F WCI  11
$$

IAZ064-065-067-068-078-172000-
   EAST CENTRAL IOWA

CITY           SKY/WX    TMP DP  RH WIND       PRES   REMARKS
DAVENPORT      MOSUNNY   25  16  68 W12       30.26F WCI  14
IOWA CITY      SUNNY     25  15  66 NW13G20   30.29F WCI  14
MT. PLEASANT * SUNNY     28  19  69 NW6       30.30S WCI  22
MUSCATINE *    SUNNY     28  16  59 W9        30.30F WCI  20
$$

IAZ062-063-075>077-085>089-095>099-172000-
   SOUTHEAST IOWA

CITY           SKY/WX    TMP DP  RH WIND       PRES   REMARKS
BURLINGTON     MOSUNNY   27  19  72 NW6       30.29F WCI  20
FAIRFIELD *    MOSUNNY   27  18  69 NW7       30.29F WCI  19
FORT MADISON * MOSUNNY   28  21  74 W5        30.30F WCI  23
KEOKUK *       MOSUNNY   27  19  74 VRB5      30.29F WCI  21
OSKALOOSA *      N/A     27  18  69 NW6       30.30S WCI  20
CENTERVILLE *  SUNNY     28  18  64 NW3       30.29F
OTTUMWA        SUNNY     27  17  66 NW10      30.29F WCI  17
WASHINGTON *   SUNNY     27  21  80 NW10      30.28F WCI  17
$$

ABBREVIATIONS USED IN REMARKS
   TC - TEMPERATURES IN CELSIUS
  WCI - WIND CHILL INDEX
   HX - HEAT INDEX
  VSB - VISIBILITY
$$



USA.gov is the U.S. government's official web portal to all federal, state and local government web resources and services.